Location: Unspecified
(0.0000°N, 0.0000°E)
Time: 18:24:19
(UTC+00:00)

Vanguard 1 - Pass Details

Date: 23 April 2026
Orbit: 654 x 3817 km, 34.2° (Epoch: 18 May)

Event Time Altitude Azimuth Distance (km) Brightness Sun altitude
Rises 02:57:53 0° 317° (NW) 7,750 14.4 -43.8°
Reaches altitude 10° 03:05:03 10° 327° (NNW) 6,382 14.0 -42.1°
Maximum altitude 03:19:59 28° 19° (NNE) 3,895 13.2 -38.5°
Drops below altitude 10° 03:29:38 10° 74° (ENE) 4,124 14.0 -36.2°
Sets 03:32:57 0° 86° (E) 4,712 14.5 -35.4°
